Voltar ao catálogo

SL-8 DEB

AtivoPO
NORAD 37632·DEBRIS·🇷🇺 Russia

Lançado Oct 19, 1982 de Plesetsk Cosmodrome

Loading…

Próximas Passagens (próximas 24 horas)

TLE

EnvelhecendoSource: Space-Track

Época: Sep 8, 2026, 10:43 UTC

1 37632U 82102C   26251.44721459  .00000294  00000-0  26327-3 0  9994
2 37632  82.9657 148.8083 0031805   9.1486 351.0246 13.80924668597354

Acompanhe SL-8 DEB em tempo real com AllMySat

Download on the App Store